User: anonymous   Login
Location: Unspecified
(0.0000°N, 0.0000°E)
Time: 15:56:28
(UTC+00:00)
Language:

Transit 2A Rocket - Orbit

View from above orbital plane
View from above orbital plane
View from above satellite
View from above satellite

Ground track
Ground track

The orbit data is extracted from the following two-line orbital elements,

1 00047U 60007C   24206.94710841  .00000873  00000-0  20999-3 0  9992
2 00047  66.6654 105.2346 0230641 285.6694  71.9073 14.43674865350815
Epoch (UTC): 24 July 2024 22:43:50
Eccentricity: 0.0230641
inclination: 66.6654°
perigee height: 582 km
apogee height: 911 km
right ascension of ascending node: 105.2346°
argument of perigee: 285.6694°
revolutions per day: 14.43674865
mean anomaly at epoch: 71.9073°
orbit number at epoch: 35081

The dashed part of the orbit path shows where the satellite is in the earth's shadow,  

DLR